User: anonymous   Login
Location: ČR
(50.0000°N, 15.0000°E)
Time: 14:55:35
(UTC+00:00)
Language:

Courier 1B - Orbit

View from above orbital plane
View from above orbital plane
View from above satellite
View from above satellite

Ground track
Ground track

The orbit data is extracted from the following two-line orbital elements,

1 00058U 60013A   21297.85451713  .00000090  00000-0  36222-5 0  9997
2 00058  28.3270 106.3916 0165029 202.4974 156.8266 13.46329271  5281
Epoch (UTC): 24 October 2021 20:30:30
Eccentricity: 0.0165029
inclination: 28.3270°
perigee height: 962 km
apogee height: 1209 km
right ascension of ascending node: 106.3916°
argument of perigee: 202.4974°
revolutions per day: 13.46329271
mean anomaly at epoch: 156.8266°
orbit number at epoch: 528

The dashed part of the orbit path shows where the satellite is in the earth's shadow,  

DLR